This is the latest recevied weather packets stored in our database for station/object N0SWP-3. If no packets are shown the sender has not sent any weather packets the latest 10 day(s).
| Time | Temp. | Humidity | Pressure | Rain* | Wind** | Luminosity | Snow |
|---|---|---|---|---|---|---|---|
| 1777879083 | 21.11° C | 45% | 1006.5 hPa | 0 mm | - | - | - |
| 1777878543 | 21.67° C | 44% | 1006.6 hPa | 0 mm | - | - | - |
| 1777878363 | 21.67° C | 44% | 1006.5 hPa | 0 mm | - | - | - |
| 1777877464 | 21.67° C | 44% | 1006.8 hPa | 0 mm | - | - | - |
| 1777877419 | 21.67° C | 44% | 1006.8 hPa | 0 mm | - | - | - |
| 1777876023 | 21.67° C | 44% | 1006.8 hPa | 0 mm | - | - | - |
| 1777875618 | 21.67° C | 44% | 1007 hPa | 0 mm | - | - | - |
| 1777874043 | 21.67° C | 44% | 1007 hPa | 0 mm | - | - | - |
| 1777873998 | 21.67° C | 44% | 1007.1 hPa | 0 mm | - | - | - |
| 1777873818 | 21.67° C | 44% | 1007 hPa | 0 mm | - | - | - |
| 1777873503 | 21.67° C | 44% | 1007 hPa | 0 mm | - | - | - |
| 1777873143 | 21.67° C | 44% | 1007 hPa | 0 mm | - | - | - |
| 1777872783 | 21.67° C | 44% | 1007.1 hPa | 0 mm | - | - | - |
| 1777872424 | 21.67° C | 45% | 1006.9 hPa | 0 mm | - | - | - |
| 1777871884 | 21.67° C | 45% | 1007 hPa | 0 mm | - | - | - |
| 1777869903 | 21.11° C | 47% | 1007.3 hPa | 0 mm | - | - | - |
| 1777869723 | 21.11° C | 48% | 1007.3 hPa | 0 mm | - | - | - |
| 1777869497 | 21.11° C | 48% | 1007.3 hPa | 0 mm | - | - | - |
| 1777868643 | 20.56° C | 50% | 1007.4 hPa | 0 mm | - | - | - |
| 1777868418 | 20.56° C | 51% | 1007.5 hPa | 0 mm | - | - | - |
| 1777867023 | 21.11° C | 51% | 1007.6 hPa | 0 mm | - | - | - |
| 1777866663 | 21.11° C | 51% | 1007.6 hPa | 0 mm | - | - | - |
| 1777866123 | 21.11° C | 51% | 1007.6 hPa | 0 mm | - | - | - |
| 1777865223 | 21.11° C | 51% | 1007.7 hPa | 0 mm | - | - | - |
| 1777861983 | 22.22° C | 47% | 1007.7 hPa | 0 mm | - | - | - |
* Rain latest hour (hover to see other rain measurements)
** Current wind speed in m/s (hover to see current wind gust speed)